DW5735 Weather Reports


Display with metric or nautical units.
time (UTC)temp
F
wind
direction
speed
MPH
gust
MPH
rain 1hr
in
rain 24hr
in
rain mn
in
humidity
%
barometer
mb
20260905130323 52 84 0.0 0.0 0.00 0.00 0.00 88 1019.6
20260905125905 52 82 0.0 0.0 0.00 0.00 0.00 88 1019.7
20260905125318 52 90 0.0 0.0 0.00 0.00 0.00 88 1019.7
20260905124820 52 77 0.0 0.0 0.00 0.00 0.00 88 1019.7
20260905124325 52 76 0.0 0.0 0.00 0.00 0.00 88 1019.6
20260905123819 52 52 0.0 0.0 0.00 0.00 0.00 88 1019.6
20260905123345 52 78 0.0 0.0 0.00 0.00 0.00 88 1019.5
20260905123114 51 79 0.0 0.0 0.00 0.00 0.00 88 1019.2
20260905122904 52 78 0.0 0.0 0.00 0.00 0.00 88 1019.5
20260905122336 52 98 0.0 0.0 0.00 0.00 0.00 89 1019.4
20260905121838 52 75 0.0 0.0 0.00 0.00 0.00 88 1019.4
20260905121604 51 70 0.0 0.0 0.00 0.00 0.00 88 1019.1
20260905121326 51 94 0.0 0.0 0.00 0.00 0.00 89 1019.4
20260905120845 51 87 0.0 0.0 0.00 0.00 0.00 89 1019.4
20260905120318 51 102 0.0 0.0 0.00 0.00 0.00 88 1019.4
20260905120117 51 104 0.0 0.0 0.00 0.00 0.00 88 1019.1
20260905115848 52 99 0.0 0.0 0.00 0.00 0.00 89 1019.3
20260905115342 52 103 0.0 0.0 0.00 0.00 0.00 88 1019.3
20260905114830 52 91 0.0 0.0 0.00 0.00 0.00 88 1019.2
20260905114601 51 78 0.0 0.0 0.00 0.00 0.00 88 1019.0
20260905114338 52 41 0.0 0.0 0.00 0.00 0.00 88 1019.3
20260905113851 52 54 0.0 0.0 0.00 0.00 0.00 88 1019.3
20260905113342 53 27 0.0 0.0 0.00 0.00 0.00 89 1019.2
20260905113101 52 32 0.0 0.0 0.00 0.00 0.00 89 1018.9
20260905112858 52 39 0.0 0.0 0.00 0.00 0.00 88 1019.2
20260905112329 52 34 0.0 0.0 0.00 0.00 0.00 88 1019.1
20260905111839 52 42 0.0 0.0 0.00 0.00 0.00 89 1019.1
20260905111613 52 43 0.0 0.0 0.00 0.00 0.00 89 1018.8
20260905111318 52 56 0.0 0.0 0.00 0.00 0.00 89 1019.0
20260905110859 52 81 0.0 0.0 0.00 0.00 0.00 89 1019.0
20260905110337 52 93 0.0 0.0 0.00 0.00 0.00 89 1018.9
20260905110059 51 91 0.0 0.0 0.00 0.00 0.00 89 1018.7
20260905105837 52 95 0.0 0.0 0.00 0.00 0.00 89 1018.9
20260905105337 51 94 0.0 0.0 0.00 0.00 0.00 90 1018.8
20260905104819 51 95 0.0 0.0 0.00 0.00 0.00 90 1018.8
20260905104553 51 101 0.0 0.0 0.00 0.00 0.00 90 1018.5
20260905104331 51 84 0.0 0.0 0.00 0.00 0.00 90 1018.8
20260905103845 51 93 0.0 0.0 0.00 0.00 0.00 90 1018.8
20260905103333 51 91 0.0 0.0 0.00 0.00 0.00 90 1018.8
20260905102839 51 94 0.0 0.0 0.00 0.00 0.00 90 1018.8
20260905102323 51 79 0.0 0.0 0.00 0.00 0.00 89 1018.8
20260905101817 51 89 0.0 0.0 0.00 0.00 0.00 89 1018.8
20260905101616 51 89 0.0 0.0 0.00 0.00 0.00 89 1018.5
20260905101323 51 87 0.0 0.0 0.00 0.00 0.00 89 1018.8
20260905100818 52 88 0.0 0.0 0.00 0.00 0.00 89 1018.8
20260905100336 52 88 0.0 0.0 0.00 0.00 0.00 89 1018.8
20260905100142 52 87 0.0 0.0 0.00 0.00 0.00 89 1018.5
20260905095819 52 101 0.0 0.0 0.00 0.00 0.00 89 1018.8
20260905095331 52 94 0.0 0.0 0.00 0.00 0.00 89 1018.8
20260905094823 52 96 0.0 0.0 0.00 0.00 0.00 89 1018.8
20260905094614 52 99 0.0 0.0 0.00 0.00 0.00 89 1018.5
20260905094317 52 94 0.0 0.0 0.00 0.00 0.00 89 1018.8
20260905093823 52 67 0.0 0.0 0.00 0.00 0.00 89 1018.8
20260905093318 53 77 0.0 0.0 0.00 0.00 0.00 89 1018.8
20260905093107 52 76 0.0 0.0 0.00 0.00 0.00 89 1018.6
20260905092828 53 50 0.0 0.0 0.00 0.00 0.00 89 1018.8
20260905092344 52 37 0.0 0.0 0.00 0.00 0.00 88 1018.8
20260905091833 53 43 0.0 0.0 0.00 0.00 0.00 88 1018.8
20260905091520 52 87 0.0 0.0 0.00 0.00 0.00 88 1018.5
20260905091333 53 67 0.0 0.0 0.00 0.00 0.00 88 1018.8
20260905090826 53 86 0.0 0.0 0.00 0.00 0.00 87 1018.7
20260905090346 53 76 0.0 0.0 0.00 0.00 0.00 87 1018.7
20260905090121 53 94 0.0 0.0 0.00 0.00 0.00 87 1018.5
20260905085819 53 93 0.0 0.0 0.00 0.00 0.00 87 1018.8
20260905085345 53 60 0.0 0.0 0.00 0.00 0.00 87 1018.8
20260905084904 53 48 0.0 0.0 0.00 0.00 0.00 87 1018.7
20260905084634 53 51 0.0 0.0 0.00 0.00 0.00 87 1018.4
20260905084353 54 65 0.0 0.0 0.00 0.00 0.00 87 1018.6
20260905083829 54 83 0.0 0.0 0.00 0.00 0.00 87 1018.6
20260905083343 53 34 0.0 0.0 0.00 0.00 0.00 87 1018.6
20260905083039 53 60 0.0 0.0 0.00 0.00 0.00 87 1018.3
20260905082819 53 60 0.0 0.0 0.00 0.00 0.00 86 1018.5
20260905082340 54 72 0.0 0.0 0.00 0.00 0.00 87 1018.5
20260905081824 54 62 0.0 0.0 0.00 0.00 0.00 86 1018.5
20260905081617 53 64 0.0 0.0 0.00 0.00 0.00 86 1018.1
20260905080845 54 96 0.0 0.0 0.00 0.00 0.00 86 1018.5
20260905080333 54 98 0.0 0.0 0.00 0.00 0.00 86 1018.4
20260905080104 54 98 0.0 0.0 0.00 0.00 0.00 85 1018.0
20260905075827 55 79 0.0 0.0 0.00 0.00 0.00 85 1018.4
20260905075320 55 94 0.0 0.0 0.00 0.00 0.00 85 1018.3
20260905074821 55 79 0.0 0.0 0.00 0.00 0.00 84 1018.4
20260905074607 55 78 0.0 0.0 0.00 0.00 0.00 84 1017.9
20260905074331 55 50 0.0 0.0 0.00 0.00 0.00 84 1018.3
20260905073825 55 60 0.0 0.0 0.00 0.00 0.00 84 1018.3
20260905073340 56 28 0.0 0.0 0.00 0.00 0.00 83 1018.3
20260905073104 55 46 0.0 0.0 0.00 0.00 0.00 83 1018.1
20260905072856 56 90 0.0 0.0 0.00 0.00 0.00 82 1018.3
20260905072317 56 84 0.0 0.0 0.00 0.00 0.00 82 1018.2
20260905071839 56 88 0.0 0.0 0.00 0.00 0.00 82 1018.2
20260905071607 56 101 0.0 0.0 0.00 0.00 0.00 81 1017.8
20260905071324 56 38 0.0 0.0 0.00 0.00 0.00 82 1018.1
20260905070849 57 66 0.0 0.0 0.00 0.00 0.00 83 1018.1
20260905070328 57 27 0.0 0.0 0.00 0.00 0.00 82 1018.1
20260905070121 56 56 0.0 0.0 0.00 0.00 0.00 83 1017.8
20260905065818 56 28 0.0 0.0 0.00 0.00 0.00 82 1018.1
20260905065355 57 44 0.0 0.0 0.00 0.00 0.00 82 1018.0
20260905064826 57 37 0.0 0.0 0.00 0.00 0.00 82 1018.0
20260905064603 56 73 0.0 0.0 0.00 0.00 0.00 81 1017.7
20260905064320 57 13 0.0 0.0 0.00 0.00 0.00 81 1018.0
20260905063826 57 68 0.0 0.0 0.00 0.00 0.00 81 1017.9
20260905063346 57 75 0.0 0.0 0.00 0.00 0.00 81 1017.9
20260905063101 56 91 0.0 0.0 0.00 0.00 0.00 80 1017.6
20260905062330 57 50 0.0 0.0 0.00 0.00 0.00 80 1017.8
20260905061859 57 68 0.0 0.0 0.00 0.00 0.00 80 1017.8
20260905061623 56 75 0.0 0.0 0.00 0.00 0.00 80 1017.6
20260905061341 57 75 0.0 0.0 0.00 0.00 0.00 80 1017.8
20260905060826 57 101 0.0 0.0 0.00 0.00 0.00 79 1017.8
20260905060338 57 94 0.0 0.0 0.00 0.00 0.00 79 1017.8
20260905055839 57 109 0.0 1.0 0.00 0.00 0.00 79 1017.8
20260905055326 57 87 0.0 1.0 0.00 0.00 0.00 79 1017.8
20260905054830 57 85 0.0 0.0 0.00 0.00 0.00 79 1017.8
20260905054553 57 104 0.0 0.0 0.00 0.00 0.00 80 1017.5
20260905054330 57 82 0.0 0.0 0.00 0.00 0.00 79 1017.8
20260905053855 57 34 0.0 0.0 0.00 0.00 0.00 79 1017.8
20260905053334 57 108 0.0 0.0 0.00 0.00 0.00 79 1017.8
20260905053127 57 94 0.0 0.0 0.00 0.00 0.00 79 1017.6
20260905052834 57 74 0.0 0.0 0.00 0.00 0.00 79 1017.8
20260905052337 57 57 0.0 0.0 0.00 0.00 0.00 79 1017.7
20260905051900 57 98 0.0 0.0 0.00 0.00 0.00 79 1017.7
20260905051514 57 98 0.0 0.0 0.00 0.00 0.00 79 1017.3
20260905051337 57 73 0.0 1.0 0.00 0.00 0.00 79 1017.7
20260905050820 57 86 0.0 1.0 0.00 0.00 0.00 79 1017.7
20260905050337 57 85 0.0 0.0 0.00 0.00 0.00 79 1017.6
20260905045830 57 105 0.0 0.0 0.00 0.00 0.00 78 1017.6
20260905045341 57 83 0.0 0.0 0.00 0.00 0.00 78 1017.6
20260905044826 57 71 0.0 0.0 0.00 0.00 0.00 78 1017.6
20260905044502 57 65 0.0 0.0 0.00 0.00 0.00 78 1017.3
20260905044325 57 71 0.0 0.0 0.00 0.00 0.00 78 1017.6
20260905043837 58 89 0.0 0.0 0.00 0.00 0.00 78 1017.6
20260905043322 58 101 0.0 0.0 0.00 0.00 0.00 78 1017.6
20260905043104 57 78 0.0 0.0 0.00 0.00 0.00 78 1017.3
20260905042819 58 42 0.0 0.0 0.00 0.00 0.00 78 1017.7
20260905042319 58 37 0.0 0.0 0.00 0.00 0.00 76 1017.6
20260905041844 58 130 0.0 1.0 0.00 0.00 0.00 76 1017.5
20260905041602 58 98 0.0 1.0 0.00 0.00 0.00 76 1017.1
20260905041336 58 89 0.0 1.0 0.00 0.00 0.00 75 1017.4
20260905040827 58 92 0.0 1.0 0.00 0.00 0.00 75 1017.3
20260905040328 58 91 0.0 1.0 0.00 0.00 0.00 75 1017.3
20260905035836 59 95 0.0 0.0 0.00 0.00 0.00 75 1017.1
20260905035316 59 100 0.0 4.0 0.00 0.00 0.00 75 1017.1
20260905034827 59 103 1.0 4.0 0.00 0.00 0.00 75 1017.2
20260905034613 58 87 0.0 5.0 0.00 0.00 0.00 75 1016.9
20260905034330 59 91 0.0 3.0 0.00 0.00 0.00 74 1017.1
20260905033827 59 113 0.0 3.0 0.00 0.00 0.00 74 1017.0
20260905033359 59 72 0.0 0.0 0.00 0.00 0.00 74 1017.0
20260905033052 59 34 0.0 4.0 0.00 0.00 0.00 73 1016.7
20260905032826 59 76 0.0 5.0 0.00 0.00 0.00 73 1017.0
20260905032323 59 72 1.0 5.0 0.00 0.00 0.00 73 1017.0
20260905031821 59 65 0.0 0.0 0.00 0.00 0.00 73 1016.8
20260905031621 59 74 0.0 0.0 0.00 0.00 0.00 73 1016.5
20260905031342 59 75 0.0 0.0 0.00 0.00 0.00 73 1016.8
20260905030840 59 56 0.0 0.0 0.00 0.00 0.00 73 1016.7
20260905030326 59 107 0.0 0.0 0.00 0.00 0.00 73 1016.7
20260905030054 59 101 0.0 0.0 0.00 0.00 0.00 72 1016.3
20260905025853 60 98 0.0 0.0 0.00 0.00 0.00 72 1016.7
20260905025319 60 108 0.0 0.0 0.00 0.00 0.00 72 1016.6
20260905024858 60 103 0.0 5.0 0.00 0.00 0.00 72 1016.6
20260905024332 60 107 1.0 5.0 0.00 0.00 0.00 72 1016.7
20260905023825 60 113 2.0 5.0 0.00 0.00 0.00 72 1016.7
20260905023336 60 102 3.0 5.0 0.00 0.00 0.00 71 1016.6
20260905023105 59 115 2.0 5.0 0.00 0.00 0.00 71 1016.3
20260905022821 60 108 1.0 5.0 0.00 0.00 0.00 71 1016.7
20260905022327 60 98 1.0 6.0 0.00 0.00 0.00 71 1016.5
20260905021819 60 110 2.0 6.0 0.00 0.00 0.00 71 1016.4
20260905021602 60 99 0.0 6.0 0.00 0.00 0.00 71 1016.0
20260905021319 60 113 1.0 5.0 0.00 0.00 0.00 71 1016.5
20260905020822 61 105 1.0 4.0 0.00 0.00 0.00 71 1016.4
20260905020345 61 121 1.0 4.0 0.00 0.00 0.00 71 1016.4
20260905020110 60 98 1.0 4.0 0.00 0.00 0.00 71 1015.9
20260905015826 61 89 0.0 0.0 0.00 0.00 0.00 71 1016.4
20260905015318 61 60 0.0 5.0 0.00 0.00 0.00 71 1016.3
20260905014819 61 113 1.0 5.0 0.00 0.00 0.00 70 1016.2
20260905014553 61 104 1.0 5.0 0.00 0.00 0.00 70 1015.8
20260905014349 61 87 0.0 4.0 0.00 0.00 0.00 70 1016.2
20260905013827 61 64 0.0 5.0 0.00 0.00 0.00 70 1016.2
20260905013332 62 82 1.0 5.0 0.00 0.00 0.00 70 1016.1
20260905013001 61 111 1.0 5.0 0.00 0.00 0.00 71 1015.6
20260905012823 62 76 1.0 6.0 0.00 0.00 0.00 71 1016.0
20260905012333 62 111 1.0 6.0 0.00 0.00 0.00 70 1015.9
20260905011819 62 84 0.0 5.0 0.00 0.00 0.00 70 1015.9
20260905011616 61 123 0.0 5.0 0.00 0.00 0.00 70 1015.5
20260905011325 62 105 1.0 4.0 0.00 0.00 0.00 70 1015.9
20260905010838 62 104 0.0 5.0 0.00 0.00 0.00 69 1015.6
20260905010319 62 116 1.0 5.0 0.00 0.00 0.00 69 1015.6
20260905010108 62 107 0.0 0.0 0.00 0.00 0.00 69 1015.1
20260905005913 63 102 0.0 0.0 0.00 0.00 0.00 69 1015.5
20260905005402 63 105 0.0 0.0 0.00 0.00 0.00 69 1015.5
20260905004841 63 87 0.0 0.0 0.00 0.00 0.00 69 1015.5
20260905004557 62 88 0.0 0.0 0.00 0.00 0.00 68 1015.2
20260905004322 63 77 0.0 0.0 0.00 0.00 0.00 68 1015.4
20260905003825 63 114 0.0 0.0 0.00 0.00 0.00 67 1015.4
20260905003328 63 68 0.0 0.0 0.00 0.00 0.00 68 1015.4
20260905002833 63 66 0.0 0.0 0.00 0.00 0.00 67 1015.3
20260905002333 63 64 0.0 0.0 0.00 0.00 0.00 66 1015.1
20260905001845 63 46 0.0 0.0 0.00 0.00 0.00 66 1015.1
20260905001607 63 49 0.0 0.0 0.00 0.00 0.00 65 1014.9
20260905001321 64 66 0.0 0.0 0.00 0.00 0.00 63 1015.1
20260905000830 64 71 0.0 0.0 0.00 0.00 0.00 63 1015.1
20260905000333 64 119 0.0 0.0 0.00 0.00 0.00 62 1015.0
20260905000114 63 103 0.0 0.0 0.00 0.00 0.00 62 1014.5
20260904235818 64 104 0.0 0.0 0.00 0.00 0.00 62 1014.9
20260904235331 64 106 0.0 0.0 0.00 0.00 0.00 62 1014.9
20260904234826 64 52 0.0 0.0 0.00 0.00 0.00 61 1014.8
20260904234517 63 101 0.0 0.0 0.00 0.00 0.00 62 1014.4
20260904233825 63 56 0.0 0.0 0.00 0.00 0.00 63 1014.7
20260904233324 63 56 0.0 1.0 0.00 0.00 0.00 63 1014.7
20260904233121 63 61 0.0 1.0 0.00 0.00 0.00 63 1014.4
20260904232837 63 103 0.0 5.0 0.00 0.00 0.00 62 1014.7
20260904232338 63 96 0.0 8.0 0.00 0.00 0.00 64 1014.7
20260904231824 63 36 3.0 6.0 0.00 0.00 0.00 65 1014.8
20260904231355 63 43 0.0 4.0 0.00 0.00 0.00 64 1014.7
20260904230830 64 89 1.0 6.0 0.00 0.00 0.00 64 1014.7
20260904230330 63 57 0.0 6.0 0.00 0.00 0.00 66 1014.7
20260904230114 63 33 4.0 7.0 0.00 0.00 0.00 65 1014.3
20260904225831 64 40 2.0 7.0 0.00 0.00 0.00 65 1014.7
20260904225321 63 44 1.0 8.0 0.00 0.00 0.00 66 1014.6
20260904224829 63 29 1.0 8.0 0.00 0.00 0.00 65 1014.6
20260904224558 63 41 5.0 8.0 0.00 0.00 0.00 66 1014.1
20260904224336 63 27 5.0 8.0 0.00 0.00 0.00 67 1014.5
20260904223851 63 63 1.0 7.0 0.00 0.00 0.00 68 1014.5
20260904223325 63 21 1.0 7.0 0.00 0.00 0.00 67 1014.4
20260904223132 63 62 4.0 7.0 0.00 0.00 0.00 69 1014.0
20260904222822 63 23 4.0 8.0 0.00 0.00 0.00 66 1014.3
20260904222339 63 76 3.0 8.0 0.00 0.00 0.00 65 1014.3
20260904221832 63 72 1.0 9.0 0.00 0.00 0.00 66 1014.3
20260904221600 63 43 2.0 9.0 0.00 0.00 0.00 66 1014.1
20260904221336 63 26 6.0 9.0 0.00 0.00 0.00 66 1014.4
20260904220838 63 22 4.0 8.0 0.00 0.00 0.00 67 1014.3
20260904220344 63 27 0.0 7.0 0.00 0.00 0.00 68 1014.4
20260904215829 63 49 1.0 7.0 0.00 0.00 0.00 67 1014.4
20260904215321 63 33 0.0 0.0 0.00 0.00 0.00 67 1014.3
20260904214831 63 21 0.0 0.0 0.00 0.00 0.00 66 1014.3
20260904214507 63 32 0.0 0.0 0.00 0.00 0.00 67 1014.1
20260904214329 63 34 0.0 0.0 0.00 0.00 0.00 65 1014.3
20260904213834 63 31 0.0 0.0 0.00 0.00 0.00 64 1014.4
20260904213336 63 4 0.0 0.0 0.00 0.00 0.00 64 1014.4
20260904213104 63 30 0.0 0.0 0.00 0.00 0.00 64 1014.1
20260904212819 63 73 0.0 0.0 0.00 0.00 0.00 64 1014.5
20260904212335 64 23 0.0 0.0 0.00 0.00 0.00 63 1014.4
20260904211845 64 325 0.0 0.0 0.00 0.00 0.00 61 1014.3
20260904211601 63 8 0.0 0.0 0.00 0.00 0.00 61 1014.1
20260904211337 64 23 0.0 0.0 0.00 0.00 0.00 62 1014.4
20260904210822 63 351 0.0 0.0 0.00 0.00 0.00 62 1014.3
20260904210325 64 26 0.0 0.0 0.00 0.00 0.00 63 1014.3
20260904210129 63 25 0.0 0.0 0.00 0.00 0.00 63 1014.0
20260904205820 64 25 0.0 0.0 0.00 0.04 0.00 64 1014.3
20260904204826 63 67 0.0 0.0 0.00 0.04 0.00 66 1014.2
20260904204604 62 77 0.0 0.0 0.00 0.01 0.00 66 1014.0
20260904204402 62 77 0.0 0.0 0.00 0.04 0.00 65 1014.3
20260904203837 63 25 0.0 0.0 0.00 0.04 0.00 66 1014.3
20260904203319 62 284 0.0 0.0 0.00 0.04 0.00 65 1014.3
20260904203106 62 270 0.0 0.0 0.00 0.01 0.00 65 1014.0
20260904202831 63 261 0.0 0.0 0.00 0.04 0.00 64 1014.3
20260904202326 63 274 0.0 0.0 0.00 0.04 0.00 64 1014.4
20260904201854 63 239 0.0 0.0 0.00 0.04 0.00 65 1014.4
20260904201603 62 239 0.0 0.0 0.00 0.01 0.00 68 1014.1
20260904201329 62 231 0.0 0.0 0.00 0.04 0.00 68 1014.3
20260904200822 61 250 0.0 0.0 0.00 0.04 0.00 68 1014.3
20260904200318 62 228 0.0 0.0 0.00 0.04 0.00 68 1014.4
20260904200106 61 212 0.0 0.0 0.00 0.01 0.00 69 1014.1
20260904195833 61 207 0.0 0.0 0.00 0.12 0.00 68 1014.4
20260904195344 62 273 0.0 0.0 0.00 0.12 0.00 68 1014.4
20260904194826 61 246 0.0 0.0 0.00 0.12 0.00 71 1014.4
20260904194609 61 350 0.0 0.0 0.00 0.03 0.00 70 1014.2
20260904194333 61 222 0.0 0.0 0.00 0.12 0.00 70 1014.5
20260904193837 60 219 0.0 0.0 0.00 0.12 0.00 72 1014.5
20260904193354 59 218 0.0 0.0 0.00 0.12 0.00 71 1014.5
20260904193125 59 75 0.0 0.0 0.00 0.03 0.00 72 1014.3
20260904192821 59 75 0.0 0.0 0.00 0.12 0.00 72 1014.6
20260904192318 59 21 0.0 0.0 0.00 0.12 0.00 73 1014.6
20260904191818 58 25 0.0 0.0 0.00 0.12 0.00 72 1014.7
20260904191606 58 25 0.0 0.0 0.00 0.03 0.00 72 1014.4
20260904191322 58 23 0.0 0.0 0.00 0.12 0.00 72 1014.6
20260904190831 58 30 0.0 0.0 0.00 0.12 0.00 72 1014.6
20260904190335 58 23 0.0 0.0 0.00 0.12 0.00 74 1014.6
20260904185822 57 28 0.0 0.0 0.00 0.20 0.00 75 1014.7
20260904185405 57 32 0.0 0.0 0.00 0.20 0.00 74 1014.5
20260904184834 57 49 0.0 0.0 0.00 0.20 0.00 77 1014.5
20260904184509 56 46 0.0 0.0 0.00 0.05 0.00 76 1014.2
20260904184330 57 46 0.0 0.0 0.00 0.20 0.00 78 1014.5
20260904183832 57 26 0.0 0.0 0.00 0.20 0.00 77 1014.5
20260904183343 57 343 0.0 0.0 0.00 0.20 0.00 77 1014.4
20260904183052 56 27 0.0 0.0 0.00 0.05 0.00 77 1014.2
20260904182818 57 6 0.0 0.0 0.00 0.20 0.00 78 1014.4
20260904182335 56 15 0.0 0.0 0.00 0.20 0.00 78 1014.4
20260904181831 56 23 0.0 0.0 0.00 0.20 0.00 79 1014.4
20260904181602 56 29 0.0 0.0 0.00 0.05 0.00 79 1014.2
20260904181320 56 29 0.0 0.0 0.00 0.20 0.00 80 1014.4
20260904180335 56 31 0.0 0.0 0.00 0.20 0.00 79 1014.3
20260904180109 55 39 0.0 0.0 0.00 0.05 0.00 80 1014.1
20260904175843 56 39 0.0 0.0 0.00 0.24 0.00 80 1014.3
20260904175318 56 60 0.0 0.0 0.00 0.24 0.00 80 1014.3
20260904174817 56 27 0.0 0.0 0.00 0.24 0.00 81 1014.3
20260904174513 55 22 0.0 0.0 0.00 0.06 0.00 80 1014.1
20260904174334 56 31 0.0 0.0 0.00 0.24 0.00 81 1014.4
20260904173824 56 37 0.0 0.0 0.00 0.24 0.00 82 1014.3
20260904173343 55 16 0.0 0.0 0.00 0.24 0.00 82 1014.4
20260904173103 55 20 0.0 0.0 0.00 0.06 0.00 82 1014.1
20260904172840 55 30 0.0 0.0 0.00 0.24 0.00 82 1014.3
20260904172322 55 48 0.0 0.0 0.00 0.24 0.00 83 1014.3
20260904171834 55 49 0.0 0.0 0.00 0.24 0.00 83 1014.3
20260904171607 54 57 0.0 0.0 0.00 0.06 0.00 84 1014.0
20260904171318 55 43 0.0 0.0 0.00 0.24 0.00 84 1014.2
20260904170817 54 30 0.0 0.0 0.00 0.24 0.00 85 1014.3
20260904170322 54 109 0.0 0.0 0.00 0.24 0.00 86 1014.2
20260904170115 54 87 0.0 0.0 0.00 0.06 0.00 85 1014.0
20260904165826 54 39 0.0 0.0 0.00 0.35 0.00 85 1014.1
20260904165354 54 77 0.0 0.0 0.00 0.35 0.00 86 1014.1
20260904164824 54 61 0.0 0.0 0.00 0.35 0.00 86 1014.1
20260904164321 54 27 0.0 0.0 0.00 0.35 0.00 86 1014.2
20260904163818 54 81 0.0 1.0 0.00 0.35 0.00 86 1014.1
20260904163329 53 78 0.0 1.0 0.00 0.35 0.00 86 1014.1
20260904163142 53 71 0.0 1.0 0.00 0.09 0.00 86 1013.8
20260904162852 53 84 0.0 0.0 0.00 0.35 0.00 86 1014.1
20260904162317 53 31 0.0 0.0 0.00 0.35 0.00 87 1014.1
20260904161837 53 77 0.0 0.0 0.00 0.35 0.00 87 1014.0
20260904161613 53 39 0.0 0.0 0.00 0.09 0.00 87 1013.8
20260904161324 53 66 0.0 0.0 0.00 0.35 0.00 87 1014.1
20260904160818 53 37 0.0 0.0 0.00 0.35 0.00 87 1014.1
20260904160327 53 48 0.0 0.0 0.00 0.35 0.00 87 1014.0
20260904160100 53 37 0.0 0.0 0.00 0.09 0.00 87 1013.7
20260904155845 53 49 0.0 0.0 0.00 0.47 0.00 87 1013.9
20260904155358 53 46 0.0 0.0 0.00 0.47 0.00 87 1013.7
20260904154834 54 34 0.0 0.0 0.00 0.47 0.00 87 1013.7
20260904154615 53 49 0.0 0.0 0.00 0.12 0.00 87 1013.5
20260904154318 53 121 0.0 0.0 0.00 0.47 0.00 86 1013.7
20260904153831 53 107 0.0 0.0 0.00 0.47 0.00 87 1013.7
20260904153329 53 77 0.0 0.0 0.00 0.47 0.00 87 1013.6
20260904153139 52 77 0.0 0.0 0.00 0.12 0.00 87 1013.3
20260904152830 53 91 0.0 0.0 0.00 0.47 0.00 87 1013.5
20260904152333 53 91 0.0 0.0 0.00 0.47 0.00 88 1013.4
20260904151911 52 34 0.0 0.0 0.00 0.47 0.00 88 1013.3
20260904151601 52 34 0.0 0.0 0.00 0.12 0.00 88 1013.1
20260904151329 52 34 0.0 0.0 0.00 0.47 0.00 88 1013.3
20260904150829 52 34 0.0 0.0 0.00 0.47 0.00 89 1013.3
20260904150334 52 54 0.0 0.0 0.00 0.47 0.00 88 1013.3
20260904150055 52 68 0.0 0.0 0.00 0.12 0.00 88 1013.0
20260904145828 52 31 0.0 0.0 0.00 0.51 0.00 88 1013.2
20260904144858 52 56 0.0 0.0 0.00 0.51 0.00 88 1013.2
20260904144614 52 62 0.0 0.0 0.00 0.13 0.00 88 1012.9
20260904144357 52 30 0.0 0.0 0.00 0.51 0.00 89 1013.1
20260904143838 52 30 0.0 0.0 0.00 0.51 0.00 90 1013.0
20260904143327 52 26 0.0 0.0 0.00 0.51 0.00 90 1013.0
20260904142841 52 40 0.0 0.0 0.00 0.51 0.00 89 1013.1
20260904142320 52 56 0.0 0.0 0.00 0.51 0.00 88 1013.0
20260904141827 52 40 0.0 0.0 0.00 0.51 0.00 89 1013.0
20260904141620 51 51 0.0 0.0 0.00 0.13 0.00 89 1012.7
20260904141327 52 37 0.0 1.0 0.00 0.51 0.00 89 1012.8
20260904140826 52 46 0.0 1.0 0.00 0.51 0.00 90 1012.7
20260904140323 52 43 0.0 0.0 0.00 0.51 0.00 90 1012.6
20260904135838 51 47 0.0 0.0 0.00 0.55 0.00 89 1012.5
20260904135319 51 34 0.0 0.0 0.00 0.55 0.00 90 1012.5
20260904134819 51 46 0.0 0.0 0.00 0.55 0.00 90 1012.4
20260904134608 51 40 0.0 0.0 0.00 0.14 0.00 90 1012.2
20260904134343 51 32 0.0 0.0 0.00 0.55 0.00 90 1012.4
20260904133829 51 37 0.0 0.0 0.00 0.55 0.00 90 1012.4
20260904133321 51 56 0.0 0.0 0.00 0.55 0.00 90 1012.4
20260904133110 51 53 0.0 0.0 0.00 0.14 0.00 90 1012.2
20260904132818 51 75 0.0 0.0 0.00 0.55 0.00 90 1012.4
20260904132329 51 41 0.0 0.0 0.00 0.55 0.00 90 1012.4
20260904131827 51 96 0.0 0.0 0.00 0.55 0.00 90 1012.4
20260904131602 51 65 0.0 0.0 0.00 0.14 0.00 90 1012.2
20260904131358 51 48 0.0 0.0 0.00 0.55 0.00 90 1012.3
20260904130851 51 42 0.0 0.0 0.00 0.55 0.00 90 1012.3